,,,PA_Meas_PMT16A,,PR_Meas_QMR101_102,,RH_Meas_QMH101,,SR_Meas_QMS101,,TA_Meas_QMH101,,GenWind,,GenWind,
date,time,status,PA,status,PR,status,RH,status,SR,status,TA,status,DirAvg,status,SpdAvg,
2012-03-02, 00:00:04,VALID,997.061,VALID,0,VALID,92.2574,VALID,0,VALID,24.9289,VALID,167,VALID,2.23711,
2012-03-02, 00:01:04,VALID,997.064,VALID,0.5,VALID,92.3566,VALID,0,VALID,24.9289,VALID,159,VALID,2.53047,
2012-03-02, 00:02:04,VALID,997.081,VALID,0,VALID,92.4023,VALID,0,VALID,24.9093,VALID,157,VALID,2.32969,
2012-03-02, 00:03:04,VALID,997.07,VALID,0,VALID,92.4634,VALID,0,VALID,24.8898,VALID,156,VALID,2.26523,
2012-03-02, 00:04:04,VALID,997.077,VALID,0.5,VALID,92.4863,VALID,0,VALID,24.8703,VALID,128,VALID,2.05742,
2012-03-02, 00:05:04,VALID,997.006,VALID,0.5,VALID,92.5473,VALID,0,VALID,24.8313,VALID,64,VALID,1.57344,
2012-03-02, 00:06:04,VALID,996.981,VALID,0,VALID,92.3718,VALID,0,VALID,24.8313,VALID,146,VALID,1.80352,
2012-03-02, 00:07:04,VALID,996.937,VALID,0,VALID,92.3489,VALID,0,VALID,24.8117,VALID,162,VALID,2.24258,
2012-03-02, 00:08:04,VALID,996.877,VALID,0.5,VALID,92.5778,VALID,0,VALID,24.8117,VALID,168,VALID,3.2168,
2012-03-02, 00:09:04,VALID,996.853,VALID,0.5,VALID,92.7075,VALID,0,VALID,24.7922,VALID,174,VALID,2.35,
2012-03-02, 00:10:04,VALID,996.854,VALID,0,VALID,92.6617,VALID,0,VALID,24.7337,VALID,138,VALID,1.6418,
2012-03-02, 00:11:04,VALID,996.849,VALID,0,VALID,92.5854,VALID,0,VALID,24.6751,VALID,149,VALID,1.81836,
2012-03-02, 00:12:04,VALID,996.847,VALID,0,VALID,92.7991,VALID,0,VALID,24.6751,VALID,142,VALID,2.29375,
2012-03-02, 00:13:04,VALID,996.876,VALID,0,VALID,93.089,VALID,0,VALID,24.6751,VALID,153,VALID,1.76445,
2012-03-02, 00:14:04,VALID,996.843,VALID,0,VALID,93.2797,VALID,0,VALID,24.6946,VALID,165,VALID,3.02852,
2012-03-02, 00:15:04,VALID,996.793,VALID,0,VALID,93.3103,VALID,0,VALID,24.6946,VALID,173,VALID,2.86094,
2012-03-02, 00:16:04,VALID,996.726,VALID,0,VALID,93.3331,VALID,0,VALID,24.6751,VALID,174,VALID,2.9043,
2012-03-02, 00:17:04,VALID,996.694,VALID,0,VALID,93.2721,VALID,0,VALID,24.6751,VALID,172,VALID,3.11055,
2012-03-02, 00:18:04,VALID,996.703,VALID,0,VALID,93.3255,VALID,0,VALID,24.6946,VALID,178,VALID,2.85156,
2012-03-02, 00:19:04,VALID,996.74,VALID,0,VALID,93.2874,VALID,0,VALID,24.716,VALID,163,VALID,2.22969,
2012-03-02, 00:20:04,VALID,996.694,VALID,0,VALID,93.3255,VALID,0,VALID,24.6946,VALID,154,VALID,1.4957,
2012-03-02, 00:21:04,VALID,996.653,VALID,0,VALID,93.2645,VALID,0.104696,VALID,24.6751,VALID,150,VALID,1.66914,
2012-03-02, 00:22:04,VALID,996.622,VALID,0,VALID,93.1729,VALID,0,VALID,24.6361,VALID,163,VALID,2.0957,
2012-03-02, 00:23:04,VALID,996.571,VALID,0,VALID,93.1119,VALID,0,VALID,24.6166,VALID,151,VALID,1.58711,
2012-03-02, 00:24:04,VALID,996.555,VALID,0,VALID,93.1653,VALID,0,VALID,24.5971,VALID,150,VALID,1.46172,
2012-03-02, 00:25:04,VALID,996.498,VALID,0,VALID,93.1805,VALID,0,VALID,24.5971,VALID,150,VALID,1.74766,
2012-03-02, 00:26:04,VALID,996.464,VALID,0,VALID,93.2034,VALID,0,VALID,24.5775,VALID,148,VALID,1.48086,
2012-03-02, 00:27:04,VALID,996.474,VALID,0,VALID,93.2568,VALID,0,VALID,24.5775,VALID,146,VALID,1.46797,
2012-03-02, 00:28:04,VALID,996.426,VALID,0,VALID,93.2874,VALID,0,VALID,24.5775,VALID,146,VALID,1.27656,
2012-03-02, 00:29:04,VALID,996.445,VALID,0,VALID,93.3331,VALID,0,VALID,24.558,VALID,141,VALID,1.12188,
2012-03-02, 00:30:04,VALID,996.435,VALID,0,VALID,93.3637,VALID,0,VALID,24.5794,VALID,152,VALID,1.325,
2012-03-02, 00:31:04,VALID,996.418,VALID,0,VALID,93.3866,VALID,0,VALID,24.558,VALID,152,VALID,1.34375,
2012-03-02, 00:32:04,VALID,996.416,VALID,0,VALID,93.4094,VALID,0,VALID,24.558,VALID,166,VALID,1.44297,
2012-03-02, 00:33:04,VALID,996.423,VALID,0,VALID,93.4247,VALID,0,VALID,24.558,VALID,166,VALID,1.11992,
2012-03-02, 00:34:04,VALID,996.454,VALID,0,VALID,93.4857,VALID,0,VALID,24.558,VALID,166,VALID,1.48672,
2012-03-02, 00:35:04,VALID,996.453,VALID,0,VALID,93.4094,VALID,0,VALID,24.5794,VALID,154,VALID,1.66719,
2012-03-02, 00:36:04,VALID,996.432,VALID,0,VALID,93.3331,VALID,0,VALID,24.5794,VALID,174,VALID,1.79102,
2012-03-02, 00:37:04,VALID,996.45,VALID,0,VALID,93.2874,VALID,0,VALID,24.5971,VALID,178,VALID,1.71406,
2012-03-02, 00:38:04,VALID,996.444,VALID,0,VALID,93.2492,VALID,0,VALID,24.5971,VALID,148,VALID,1.61055,
2012-03-02, 00:39:04,VALID,996.404,VALID,0,VALID,93.2111,VALID,0,VALID,24.638,VALID,170,VALID,1.47656,
2012-03-02, 00:40:04,VALID,996.39,VALID,0,VALID,93.2187,VALID,0,VALID,24.638,VALID,179,VALID,1.31094,
2012-03-02, 00:41:04,VALID,996.376,VALID,0,VALID,93.2797,VALID,0,VALID,24.6361,VALID,172,VALID,1.58945,
2012-03-02, 00:42:04,VALID,996.392,VALID,0,VALID,93.3255,VALID,0,VALID,24.6361,VALID,170,VALID,1.50273,
2012-03-02, 00:43:04,VALID,996.414,VALID,0,VALID,93.3026,VALID,0,VALID,24.6361,VALID,165,VALID,1.66328,
2012-03-02, 00:44:04,VALID,996.422,VALID,0,VALID,93.2568,VALID,0,VALID,24.6361,VALID,154,VALID,1.24688,
2012-03-02, 00:45:04,VALID,996.392,VALID,0,VALID,93.3179,VALID,0,VALID,24.6361,VALID,148,VALID,0.978516,
2012-03-02, 00:46:04,VALID,996.393,VALID,0,VALID,93.2874,VALID,0,VALID,24.6361,VALID,147,VALID,0.858203,
2012-03-02, 00:47:04,VALID,996.401,VALID,0,VALID,93.3026,VALID,0,VALID,24.6361,VALID,139,VALID,0.766797,
2012-03-02, 00:48:04,VALID,996.389,VALID,0,VALID,93.3255,VALID,0,VALID,24.6575,VALID,109,VALID,0.834766,
2012-03-02, 00:49:04,VALID,996.414,VALID,0,VALID,93.3713,VALID,0,VALID,24.6361,VALID,109,VALID,0.488672,
2012-03-02, 00:50:04,VALID,996.397,VALID,0,VALID,93.4323,VALID,0,VALID,24.6575,VALID,109,VALID,0.749609,
2012-03-02, 00:51:04,VALID,996.361,VALID,0,VALID,93.4628,VALID,0,VALID,24.6361,VALID,109,VALID,0.136719,
2012-03-02, 00:52:04,VALID,996.341,VALID,0,VALID,93.4934,VALID,0,VALID,24.6361,VALID,109,VALID,0.278906,
2012-03-02, 00:53:04,VALID,996.349,VALID,0,VALID,93.5086,VALID,0,VALID,24.6166,VALID,109,VALID,0.0910156,
2012-03-02, 00:54:04,VALID,996.354,VALID,0,VALID,93.4781,VALID,0,VALID,24.6166,VALID,52,VALID,0.783984,
2012-03-02, 00:55:04,VALID,996.308,VALID,0,VALID,93.4705,VALID,0,VALID,24.6184,VALID,26,VALID,0.876953,
2012-03-02, 00:56:04,VALID,996.303,VALID,0,VALID,93.44,VALID,0,VALID,24.6184,VALID,17,VALID,0.992969,
2012-03-02, 00:57:04,VALID,996.234,VALID,0,VALID,93.4247,VALID,0,VALID,24.5775,VALID,333,VALID,0.880859,
2012-03-02, 00:58:04,VALID,996.221,VALID,0,VALID,93.4705,VALID,0,VALID,24.558,VALID,310,VALID,0.855859,
2012-03-02, 00:59:04,VALID,996.196,VALID,0,VALID,93.4857,VALID,0,VALID,24.558,VALID,316,VALID,0.309766,
2012-03-02, 01:00:04,VALID,996.19,VALID,0,VALID,93.5086,VALID,0,VALID,24.558,VALID,316,VALID,0,
2012-03-02, 01:01:04,VALID,996.183,VALID,0,VALID,93.5468,VALID,0,VALID,24.558,VALID,316,VALID,0,
2012-03-02, 01:02:04,VALID,996.177,VALID,0,VALID,93.5544,VALID,0,VALID,24.5385,VALID,316,VALID,0,
2012-03-02, 01:03:04,VALID,996.15,VALID,0,VALID,93.5697,VALID,0,VALID,24.5404,VALID,316,VALID,0,
2012-03-02, 01:04:04,VALID,996.153,VALID,0,VALID,93.5849,VALID,0,VALID,24.5404,VALID,312,VALID,0,
2012-03-02, 01:05:04,VALID,996.153,VALID,0,VALID,93.6307,VALID,0,VALID,24.519,VALID,312,VALID,0,
2012-03-02, 01:06:04,VALID,996.117,VALID,0,VALID,93.6917,VALID,0,VALID,24.519,VALID,312,VALID,0.239844,
2012-03-02, 01:07:04,VALID,996.092,VALID,0,VALID,93.6917,VALID,0,VALID,24.519,VALID,312,VALID,0.438281,
2012-03-02, 01:08:04,VALID,996.096,VALID,0,VALID,93.7146,VALID,0,VALID,24.519,VALID,255,VALID,0.767187,
2012-03-02, 01:09:04,VALID,996.045,VALID,0,VALID,93.7451,VALID,0,VALID,24.519,VALID,236,VALID,0.925,
2012-03-02, 01:10:04,VALID,996.034,VALID,0,VALID,93.7451,VALID,0,VALID,24.519,VALID,234,VALID,0.846875,
2012-03-02, 01:11:04,VALID,996.021,VALID,0,VALID,93.7604,VALID,0,VALID,24.519,VALID,234,VALID,0.695703,
2012-03-02, 01:12:04,VALID,995.964,VALID,0,VALID,93.7757,VALID,0,VALID,24.5404,VALID,234,VALID,0.696484,
2012-03-02, 01:13:04,VALID,995.934,VALID,0,VALID,93.7604,VALID,0,VALID,24.5385,VALID,234,VALID,0.697266,
2012-03-02, 01:14:04,VALID,995.891,VALID,0,VALID,93.7604,VALID,0,VALID,24.5385,VALID,234,VALID,0.676562,
2012-03-02, 01:15:04,VALID,995.899,VALID,0,VALID,93.7757,VALID,0,VALID,24.5385,VALID,234,VALID,0.327734,
2012-03-02, 01:16:04,VALID,995.92,VALID,0,VALID,93.7375,VALID,0,VALID,24.5385,VALID,234,VALID,0,
2012-03-02, 01:17:04,VALID,995.902,VALID,0,VALID,93.768,VALID,0,VALID,24.558,VALID,234,VALID,0,
2012-03-02, 01:18:04,VALID,995.97,VALID,0,VALID,93.7528,VALID,0,VALID,24.5385,VALID,234,VALID,0.569531,
2012-03-02, 01:19:04,VALID,995.921,VALID,0,VALID,93.7528,VALID,0,VALID,24.519,VALID,234,VALID,0.407813,
2012-03-02, 01:20:04,VALID,995.94,VALID,0,VALID,93.7604,VALID,0,VALID,24.5404,VALID,234,VALID,0.281641,
2012-03-02, 01:21:04,VALID,995.937,VALID,0,VALID,93.7528,VALID,0,VALID,24.519,VALID,234,VALID,0,
2012-03-02, 01:22:04,VALID,995.968,VALID,0,VALID,93.7833,VALID,0,VALID,24.519,VALID,152,VALID,0.428125,
2012-03-02, 01:23:04,VALID,995.977,VALID,0,VALID,93.7985,VALID,0,VALID,24.519,VALID,138,VALID,1.12969,
2012-03-02, 01:24:04,VALID,995.97,VALID,0.5,VALID,93.8443,VALID,0,VALID,24.5385,VALID,142,VALID,1.51875,
2012-03-02, 01:25:04,VALID,995.965,VALID,0,VALID,93.8596,VALID,0,VALID,24.558,VALID,136,VALID,1.4543,
2012-03-02, 01:26:04,VALID,995.972,VALID,0.5,VALID,93.852,VALID,0,VALID,24.5775,VALID,147,VALID,1.42656,
2012-03-02, 01:27:04,VALID,995.976,VALID,0,VALID,93.8825,VALID,0,VALID,24.5775,VALID,158,VALID,1.73984,
2012-03-02, 01:28:04,VALID,995.988,VALID,0,VALID,93.8977,VALID,0,VALID,24.5971,VALID,155,VALID,1.76445,
2012-03-02, 01:29:04,VALID,995.974,VALID,0,VALID,93.9359,VALID,0,VALID,24.5971,VALID,152,VALID,1.55273,
2012-03-02, 01:30:04,VALID,995.971,VALID,0.5,VALID,93.974,VALID,0,VALID,24.5971,VALID,163,VALID,1.59336,
2012-03-02, 01:31:04,VALID,995.929,VALID,0,VALID,94.0122,VALID,0.104696,VALID,24.6166,VALID,170,VALID,2.4332,
2012-03-02, 01:32:04,VALID,995.94,VALID,0,VALID,94.058,VALID,0,VALID,24.6361,VALID,169,VALID,2.63555,
2012-03-02, 01:33:04,VALID,995.957,VALID,0.5,VALID,94.0808,VALID,0,VALID,24.6361,VALID,157,VALID,1.23359,
2012-03-02, 01:34:04,VALID,995.997,VALID,0,VALID,94.0351,VALID,0,VALID,24.6575,VALID,143,VALID,1.42461,
2012-03-02, 01:35:04,VALID,995.978,VALID,0,VALID,93.9664,VALID,0,VALID,24.6166,VALID,129,VALID,1.53398,
2012-03-02, 01:36:04,VALID,996.021,VALID,0,VALID,93.8596,VALID,0,VALID,24.5971,VALID,130,VALID,0.680078,
2012-03-02, 01:37:04,VALID,996.022,VALID,0,VALID,93.7909,VALID,0,VALID,24.558,VALID,104,VALID,1.33477,
2012-03-02, 01:38:04,VALID,996.011,VALID,0,VALID,93.8138,VALID,0,VALID,24.558,VALID,47,VALID,1.0957,
2012-03-02, 01:39:04,VALID,996.009,VALID,0,VALID,93.8443,VALID,0,VALID,24.5775,VALID,55,VALID,1.35625,
2012-03-02, 01:40:04,VALID,995.97,VALID,0,VALID,93.913,VALID,0,VALID,24.5775,VALID,58,VALID,1.48242,
2012-03-02, 01:41:04,VALID,995.93,VALID,0,VALID,93.9206,VALID,0,VALID,24.5971,VALID,33,VALID,2.03281,
2012-03-02, 01:42:04,VALID,995.896,VALID,0,VALID,93.9664,VALID,0,VALID,24.5971,VALID,8,VALID,1.51602,
2012-03-02, 01:43:04,VALID,995.847,VALID,0,VALID,93.9588,VALID,0,VALID,24.6184,VALID,352,VALID,0.675,
2012-03-02, 01:44:04,VALID,995.825,VALID,0,VALID,93.9588,VALID,0,VALID,24.558,VALID,4,VALID,0.0429688,
2012-03-02, 01:45:04,VALID,995.824,VALID,0,VALID,93.9511,VALID,0,VALID,24.558,VALID,4,VALID,0,
2012-03-02, 01:46:04,VALID,995.796,VALID,0,VALID,93.9511,VALID,0,VALID,24.5385,VALID,4,VALID,0,
2012-03-02, 01:47:04,VALID,995.8,VALID,0,VALID,93.9588,VALID,0,VALID,24.519,VALID,4,VALID,0,
2012-03-02, 01:48:04,VALID,995.779,VALID,0,VALID,93.9435,VALID,0,VALID,24.4976,VALID,4,VALID,0,
2012-03-02, 01:49:04,VALID,995.831,VALID,0,VALID,93.8901,VALID,0,VALID,24.4995,VALID,4,VALID,0,
2012-03-02, 01:50:04,VALID,995.858,VALID,0,VALID,93.8901,VALID,0,VALID,24.4818,VALID,4,VALID,0,
2012-03-02, 01:51:04,VALID,995.869,VALID,0,VALID,93.8901,VALID,0,VALID,24.4604,VALID,56,VALID,0.113281,
2012-03-02, 01:52:04,VALID,995.856,VALID,0,VALID,93.913,VALID,0,VALID,24.4818,VALID,56,VALID,0.357031,
2012-03-02, 01:53:04,VALID,995.866,VALID,0,VALID,93.913,VALID,0,VALID,24.4818,VALID,56,VALID,0.593359,
2012-03-02, 01:54:04,VALID,995.831,VALID,0,VALID,93.9283,VALID,0,VALID,24.4818,VALID,56,VALID,0,
2012-03-02, 01:55:04,VALID,995.822,VALID,0,VALID,93.9283,VALID,0,VALID,24.4818,VALID,58,VALID,0,
2012-03-02, 01:56:04,VALID,995.83,VALID,0,VALID,93.9511,VALID,0,VALID,24.4604,VALID,85,VALID,0,
2012-03-02, 01:57:04,VALID,995.85,VALID,0,VALID,93.9664,VALID,0,VALID,24.48,VALID,140,VALID,0,
2012-03-02, 01:58:04,VALID,995.823,VALID,0,VALID,93.9283,VALID,0,VALID,24.4818,VALID,156,VALID,0,
2012-03-02, 01:59:04,VALID,995.815,VALID,0,VALID,93.9359,VALID,0,VALID,24.48,VALID,161,VALID,0,
2012-03-02, 02:00:04,VALID,995.804,VALID,0,VALID,93.9588,VALID,0,VALID,24.4995,VALID,165,VALID,1.46914,
2012-03-02, 02:01:04,VALID,995.759,VALID,0,VALID,93.9588,VALID,0,VALID,24.519,VALID,166,VALID,1.40313,
2012-03-02, 02:02:04,VALID,995.731,VALID,0,VALID,93.9511,VALID,0,VALID,24.5404,VALID,168,VALID,1.18086,
2012-03-02, 02:03:04,VALID,995.723,VALID,0,VALID,93.913,VALID,0,VALID,24.5599,VALID,171,VALID,1.07031,
2012-03-02, 02:04:04,VALID,995.709,VALID,0,VALID,93.9054,VALID,0,VALID,24.558,VALID,171,VALID,1.08672,
2012-03-02, 02:05:04,VALID,995.717,VALID,0,VALID,93.8596,VALID,0,VALID,24.558,VALID,182,VALID,1.15898,
2012-03-02, 02:06:04,VALID,995.686,VALID,0,VALID,93.8214,VALID,0,VALID,24.5775,VALID,182,VALID,1.41641,
2012-03-02, 02:07:04,VALID,995.724,VALID,0,VALID,93.768,VALID,0,VALID,24.558,VALID,182,VALID,1.56602,
2012-03-02, 02:08:04,VALID,995.717,VALID,0,VALID,93.7223,VALID,0,VALID,24.558,VALID,182,VALID,1.57617,
2012-03-02, 02:09:04,VALID,995.727,VALID,0,VALID,93.6917,VALID,0,VALID,24.558,VALID,182,VALID,1.51133,
2012-03-02, 02:10:04,VALID,995.711,VALID,0,VALID,93.646,VALID,0,VALID,24.5794,VALID,190,VALID,1.41055,
2012-03-02, 02:11:04,VALID,995.723,VALID,0,VALID,93.6154,VALID,0,VALID,24.5989,VALID,175,VALID,1.55664,
2012-03-02, 02:12:04,VALID,995.723,VALID,0,VALID,93.6536,VALID,0,VALID,24.5989,VALID,171,VALID,1.67383,
2012-03-02, 02:13:04,VALID,995.741,VALID,0,VALID,93.6994,VALID,0,VALID,24.6184,VALID,170,VALID,1.50898,
2012-03-02, 02:14:04,VALID,995.757,VALID,0,VALID,93.6994,VALID,0,VALID,24.6166,VALID,179,VALID,1.725,
2012-03-02, 02:15:04,VALID,995.712,VALID,0,VALID,93.6765,VALID,0,VALID,24.6184,VALID,185,VALID,1.58789,
2012-03-02, 02:16:04,VALID,995.706,VALID,0,VALID,93.6536,VALID,0,VALID,24.6184,VALID,192,VALID,1.1418,
2012-03-02, 02:17:04,VALID,995.627,VALID,0,VALID,93.6536,VALID,0,VALID,24.5971,VALID,192,VALID,0.959766,
2012-03-02, 02:18:04,VALID,995.564,VALID,0,VALID,93.6536,VALID,0,VALID,24.5971,VALID,193,VALID,0.850391,
2012-03-02, 02:19:04,VALID,995.529,VALID,0,VALID,93.6612,VALID,0,VALID,24.5775,VALID,212,VALID,0.764453,
2012-03-02, 02:20:04,VALID,995.484,VALID,0,VALID,93.6612,VALID,0,VALID,24.5775,VALID,212,VALID,0.756641,
2012-03-02, 02:21:04,VALID,995.497,VALID,0,VALID,93.646,VALID,0,VALID,24.5794,VALID,228,VALID,0.570313,
2012-03-02, 02:22:04,VALID,995.489,VALID,0,VALID,93.6078,VALID,0,VALID,24.5599,VALID,228,VALID,0.625391,
2012-03-02, 02:23:04,VALID,995.5,VALID,0,VALID,93.6154,VALID,0,VALID,24.5404,VALID,228,VALID,0.455859,
2012-03-02, 02:24:04,VALID,995.524,VALID,0,VALID,93.6231,VALID,0,VALID,24.4995,VALID,228,VALID,0.605078,
2012-03-02, 02:25:04,VALID,995.546,VALID,0,VALID,93.6231,VALID,0,VALID,24.5013,VALID,228,VALID,0.424219,
2012-03-02, 02:26:04,VALID,995.552,VALID,0,VALID,93.646,VALID,0,VALID,24.4818,VALID,228,VALID,0.386328,
2012-03-02, 02:27:04,VALID,995.608,VALID,0,VALID,93.646,VALID,0,VALID,24.4623,VALID,228,VALID,0.299609,
2012-03-02, 02:28:04,VALID,995.632,VALID,0,VALID,93.6917,VALID,0,VALID,24.4623,VALID,228,VALID,0.118359,
2012-03-02, 02:29:04,VALID,995.648,VALID,0,VALID,93.7375,VALID,0,VALID,24.4409,VALID,228,VALID,0.411328,
2012-03-02, 02:30:04,VALID,995.677,VALID,0,VALID,93.7528,VALID,0,VALID,24.4428,VALID,228,VALID,0.867188,
2012-03-02, 02:31:04,VALID,995.674,VALID,0,VALID,93.7833,VALID,0,VALID,24.4019,VALID,228,VALID,1.225,
2012-03-02, 02:32:04,VALID,995.692,VALID,0,VALID,93.8596,VALID,0,VALID,24.3824,VALID,43,VALID,1.28711,
2012-03-02, 02:33:04,VALID,995.653,VALID,0,VALID,93.9359,VALID,0,VALID,24.4037,VALID,43,VALID,1.55586,
2012-03-02, 02:34:04,VALID,995.668,VALID,0,VALID,93.9969,VALID,0,VALID,24.3842,VALID,44,VALID,1.31797,
2012-03-02, 02:35:04,VALID,995.667,VALID,0.5,VALID,94.0427,VALID,0,VALID,24.3842,VALID,47,VALID,1.13516,
2012-03-02, 02:36:04,VALID,995.648,VALID,0,VALID,94.0732,VALID,0,VALID,24.3647,VALID,47,VALID,0.495313,
2012-03-02, 02:37:04,VALID,995.737,VALID,0,VALID,94.1266,VALID,0,VALID,24.3452,VALID,47,VALID,1.10781,
2012-03-02, 02:38:04,VALID,995.812,VALID,0,VALID,94.1648,VALID,0,VALID,24.3647,VALID,45,VALID,2.43984,
2012-03-02, 02:39:04,VALID,995.805,VALID,0,VALID,94.2487,VALID,0,VALID,24.3629,VALID,26,VALID,3.29531,
2012-03-02, 02:40:04,VALID,995.757,VALID,0,VALID,94.2411,VALID,0,VALID,24.3647,VALID,16,VALID,4.28828,
2012-03-02, 02:41:04,VALID,995.693,VALID,0,VALID,94.2258,VALID,0,VALID,24.3433,VALID,27,VALID,1.70469,
2012-03-02, 02:42:04,VALID,995.663,VALID,0,VALID,94.2182,VALID,0,VALID,24.3452,VALID,353,VALID,1.44336,
2012-03-02, 02:43:04,VALID,995.635,VALID,0,VALID,94.2258,VALID,0,VALID,24.3043,VALID,323,VALID,0.308984,
2012-03-02, 02:44:04,VALID,995.641,VALID,0,VALID,94.2258,VALID,0,VALID,24.3043,VALID,323,VALID,0.503516,
2012-03-02, 02:45:04,VALID,995.679,VALID,0,VALID,94.2411,VALID,0,VALID,24.3238,VALID,323,VALID,0.551562,
2012-03-02, 02:46:04,VALID,995.652,VALID,0,VALID,94.2029,VALID,0,VALID,24.3043,VALID,323,VALID,0.653125,
2012-03-02, 02:47:04,VALID,995.635,VALID,0,VALID,94.2029,VALID,0,VALID,24.3257,VALID,323,VALID,0.583203,
2012-03-02, 02:48:04,VALID,995.651,VALID,0,VALID,94.1953,VALID,0,VALID,24.3238,VALID,323,VALID,0.419531,
2012-03-02, 02:49:04,VALID,995.667,VALID,0,VALID,94.1877,VALID,0,VALID,24.3238,VALID,323,VALID,0.719141,
2012-03-02, 02:50:04,VALID,995.731,VALID,0,VALID,94.2029,VALID,0,VALID,24.3238,VALID,329,VALID,0.991797,
2012-03-02, 02:51:04,VALID,995.741,VALID,0,VALID,94.2182,VALID,0.104696,VALID,24.3433,VALID,330,VALID,0.784766,
2012-03-02, 02:52:04,VALID,995.74,VALID,0,VALID,94.2182,VALID,0,VALID,24.3238,VALID,330,VALID,0.826563,
2012-03-02, 02:53:04,VALID,995.741,VALID,0,VALID,94.2411,VALID,0,VALID,24.3238,VALID,336,VALID,0.636328,
2012-03-02, 02:54:04,VALID,995.76,VALID,0,VALID,94.2334,VALID,0,VALID,24.3257,VALID,318,VALID,1.25195,
2012-03-02, 02:55:04,VALID,995.757,VALID,0,VALID,94.2334,VALID,0,VALID,24.3043,VALID,320,VALID,0.961719,
2012-03-02, 02:56:04,VALID,995.766,VALID,0,VALID,94.2411,VALID,0,VALID,24.2848,VALID,323,VALID,1.13125,
2012-03-02, 02:57:04,VALID,995.769,VALID,0,VALID,94.2411,VALID,0,VALID,24.2848,VALID,287,VALID,1.17773,
2012-03-02, 02:58:04,VALID,995.756,VALID,0,VALID,94.2334,VALID,0.104696,VALID,24.2848,VALID,292,VALID,0.622656,
2012-03-02, 02:59:04,VALID,995.789,VALID,0,VALID,94.1877,VALID,0,VALID,24.2848,VALID,337,VALID,0.816797,
2012-03-02, 03:00:04,VALID,995.819,VALID,0,VALID,94.1648,VALID,0,VALID,24.2458,VALID,339,VALID,0,
2012-03-02, 03:01:04,VALID,995.865,VALID,0,VALID,94.1419,VALID,0,VALID,24.2458,VALID,339,VALID,0,
2012-03-02, 03:02:04,VALID,995.854,VALID,0,VALID,94.1419,VALID,0.104696,VALID,24.2458,VALID,333,VALID,0,
2012-03-02, 03:03:04,VALID,995.843,VALID,0,VALID,94.1343,VALID,0,VALID,24.2263,VALID,295,VALID,0.36875,
2012-03-02, 03:04:04,VALID,995.835,VALID,0,VALID,94.1495,VALID,0,VALID,24.2067,VALID,222,VALID,0.814453,
2012-03-02, 03:05:04,VALID,995.881,VALID,0,VALID,94.1419,VALID,0.104696,VALID,24.2067,VALID,202,VALID,1.00898,
2012-03-02, 03:06:04,VALID,995.849,VALID,0,VALID,94.1343,VALID,0,VALID,24.2281,VALID,197,VALID,1.16719,
2012-03-02, 03:07:04,VALID,995.835,VALID,0,VALID,94.058,VALID,0,VALID,24.2281,VALID,185,VALID,1.50039,
2012-03-02, 03:08:04,VALID,995.838,VALID,0,VALID,94.0961,VALID,0,VALID,24.2458,VALID,193,VALID,1.18789,
2012-03-02, 03:09:04,VALID,995.881,VALID,0,VALID,94.1877,VALID,0,VALID,24.2653,VALID,185,VALID,1.07656,
2012-03-02, 03:10:04,VALID,995.877,VALID,0,VALID,94.2716,VALID,0,VALID,24.3452,VALID,200,VALID,0.889844,
2012-03-02, 03:11:04,VALID,995.928,VALID,0,VALID,94.2868,VALID,0,VALID,24.3238,VALID,201,VALID,0.492188,
2012-03-02, 03:12:04,VALID,995.928,VALID,0,VALID,94.2792,VALID,0,VALID,24.3238,VALID,201,VALID,0,
2012-03-02, 03:13:04,VALID,995.921,VALID,0,VALID,94.2792,VALID,0,VALID,24.3238,VALID,201,VALID,0,
2012-03-02, 03:14:04,VALID,995.944,VALID,0,VALID,94.2334,VALID,0,VALID,24.3452,VALID,201,VALID,0,
2012-03-02, 03:15:04,VALID,995.939,VALID,0,VALID,94.2105,VALID,0,VALID,24.3043,VALID,201,VALID,0,
2012-03-02, 03:16:04,VALID,995.964,VALID,0,VALID,94.1648,VALID,0,VALID,24.3257,VALID,201,VALID,0,
2012-03-02, 03:17:04,VALID,995.962,VALID,0,VALID,94.1419,VALID,0,VALID,24.3062,VALID,201,VALID,0,
2012-03-02, 03:18:04,VALID,996.035,VALID,0,VALID,94.1495,VALID,0,VALID,24.2848,VALID,201,VALID,0,
2012-03-02, 03:19:04,VALID,996.038,VALID,0,VALID,94.1343,VALID,0,VALID,24.2653,VALID,201,VALID,0,
2012-03-02, 03:20:04,VALID,996.029,VALID,0,VALID,94.1114,VALID,0,VALID,24.2866,VALID,201,VALID,0,
2012-03-02, 03:21:04,VALID,995.998,VALID,0,VALID,94.1114,VALID,0,VALID,24.2653,VALID,201,VALID,0,
2012-03-02, 03:22:04,VALID,995.988,VALID,0,VALID,94.1343,VALID,0,VALID,24.2458,VALID,291,VALID,0,
2012-03-02, 03:23:04,VALID,995.933,VALID,0,VALID,94.1648,VALID,0,VALID,24.2653,VALID,291,VALID,0,
2012-03-02, 03:24:04,VALID,995.916,VALID,0,VALID,94.2105,VALID,0,VALID,24.3062,VALID,290,VALID,0.599609,
2012-03-02, 03:25:04,VALID,995.911,VALID,0,VALID,94.2487,VALID,0,VALID,24.3062,VALID,289,VALID,0.697656,
2012-03-02, 03:26:04,VALID,995.928,VALID,0,VALID,94.264,VALID,0.104696,VALID,24.2848,VALID,267,VALID,0.748828,
2012-03-02, 03:27:04,VALID,995.946,VALID,0.5,VALID,94.3021,VALID,0,VALID,24.3043,VALID,267,VALID,0.352734,
2012-03-02, 03:28:04,VALID,995.914,VALID,0,VALID,94.3097,VALID,0,VALID,24.3043,VALID,267,VALID,0.480469,
2012-03-02, 03:29:04,VALID,995.953,VALID,0,VALID,94.3326,VALID,0.104696,VALID,24.3043,VALID,250,VALID,0.498437,
2012-03-02, 03:30:04,VALID,995.935,VALID,0,VALID,94.325,VALID,0,VALID,24.3043,VALID,242,VALID,0.90625,
2012-03-02, 03:31:04,VALID,995.912,VALID,0,VALID,94.3631,VALID,0,VALID,24.3043,VALID,258,VALID,0.531641,
2012-03-02, 03:32:04,VALID,995.903,VALID,0,VALID,94.3708,VALID,0,VALID,24.3043,VALID,268,VALID,0.591406,
2012-03-02, 03:33:04,VALID,995.899,VALID,0,VALID,94.3631,VALID,0,VALID,24.3043,VALID,268,VALID,0.0402344,
2012-03-02, 03:34:04,VALID,995.915,VALID,0,VALID,94.3479,VALID,0,VALID,24.3043,VALID,268,VALID,0.0101562,
2012-03-02, 03:35:04,VALID,995.959,VALID,0,VALID,94.3708,VALID,0,VALID,24.3043,VALID,268,VALID,0,
2012-03-02, 03:36:04,VALID,996.006,VALID,0,VALID,94.3403,VALID,0,VALID,24.2848,VALID,268,VALID,0,
2012-03-02, 03:37:04,VALID,996.044,VALID,0,VALID,94.386,VALID,0,VALID,24.3062,VALID,268,VALID,0,
2012-03-02, 03:38:04,VALID,996.138,VALID,0,VALID,94.386,VALID,0,VALID,24.2848,VALID,268,VALID,0,
2012-03-02, 03:39:04,VALID,996.224,VALID,0,VALID,94.3937,VALID,0,VALID,24.2848,VALID,268,VALID,0,
2012-03-02, 03:40:04,VALID,996.309,VALID,0,VALID,94.386,VALID,0,VALID,24.2848,VALID,125,VALID,0.537891,
2012-03-02, 03:41:04,VALID,996.409,VALID,0.5,VALID,94.4165,VALID,0,VALID,24.2848,VALID,95,VALID,1.79453,
2012-03-02, 03:42:04,VALID,996.387,VALID,1,VALID,94.4242,VALID,0.104696,VALID,24.2848,VALID,85,VALID,1.27891,
2012-03-02, 03:43:04,VALID,996.271,VALID,1,VALID,94.4242,VALID,0.104696,VALID,24.2848,VALID,85,VALID,0.0835937,
2012-03-02, 03:44:04,VALID,996.178,VALID,1,VALID,94.4547,VALID,0,VALID,24.2653,VALID,85,VALID,1.08945,
2012-03-02, 03:45:04,VALID,996.111,VALID,1,VALID,94.4852,VALID,0.104696,VALID,24.2458,VALID,249,VALID,1.11211,
2012-03-02, 03:46:04,VALID,996.044,VALID,0.5,VALID,94.5234,VALID,0,VALID,24.2476,VALID,259,VALID,1.47578,
2012-03-02, 03:47:04,VALID,996.015,VALID,0.5,VALID,94.5234,VALID,0,VALID,24.1872,VALID,242,VALID,1.2543,